Showing default

LYNK TOWER 3, 55046

Orbit data source: Space-Track

LYNK TOWER 3, 55046 is a payload satellite owned by Lynk (US) in SSO that was launched on Tue, 03 Jan 2023 UTC via an FALCON 9 launch vehicle from the Air Force Eastern Test Range (AFETR). Payload-class satellites include a variety of spacecraft equipped with specific instruments for various scientific and technological missions. These include communications satellites like Starlink; space stations such as the ISS; scientific satellites like the Hubble; Earth observation satellites from companies like Planet Labs, Umbra, and HawkEye 360; GPS; miniature CubeSats for education and research; and military/defense satellites.

Loading next visibility...
Identifier
55046, 2023-001AP
Orbit
SSO
Country
Flag of USUS
Related business
Manufacturer
Lynk
Mission
Operational Commercial Communications
Bus & Motor
LYNK SHANNON, Unknown motor
Mass
~80 kg wet, ~80 kg dry
Launch date (UTC)
2023-01-03 (4 years ago)
Launch vehicle
FALCON 9
Launch site
Air Force Eastern Test Range (AFETR)
Object type
Payload
Rocket body
Debris
Shape & HBR
Box, 1.0 m
Radar Cross Section
0.650 m², Medium (>0.1 m² and < 1m²)

Expand to show TLE details & history
Last TLE update: 12 hours ago

TLE from 12 hours ago
0 LYNK TOWER 3
1 55046U 23001AP  26196.15332417  .00006694  00000-0  18762-3 0  9998
2 55046  97.3185 256.2663 0007901  31.6752 328.4966 15.36904849196201
Epoch: 2026-07-15T03:40Z
TLE epoch observation values (Epoch: 2026-07-15T03:40:47.208Z)
Latitude
-0.00006°
Longitude
-91.94361°
Altitude
453.781 km
Speed
7.643 km/s
True Right ascension
17h 05m 03s
True Declination
0° 00' 00"
Sunlit
Object was in full shadow at epoch
Visualization orbit readout
Latitude
Unknown
Longitude
Unknown
Altitude
Unknown
Speed
Unknown
Apparent Right ascension
Unknown
Apparent Declination
Unknown
Sunlit
N/A
Visualization observer readout
Local Sidereal Time
04:42:06
Azimuth
Unknown
Elevation
Unknown
Doppler factor
Unknown
Orbital elements
Apogee altitude
457.605 km
Perigee altitude
446.811 km
Semi-major axis
6,830.345 km
Eccentricity
0.00079
Inclination
97.3185°
RAAN
256.2663°
Arg. of periapsis
31.6752°
True anomaly
328.44925°
Mean anomaly
328.4966°
Eccentric anomaly
328.47293°
Mean motion
3.84485 °/min
Orbital period
93.63 mins
BSTAR
0.00018762
Loading maneuver chart data...
Computing Atmospheric mass density...

Documentation

Showing up to 5 results
|